AFR2150 MMUN-KMSY

Flight info

Callsign AFR2150
Flight time 1h 33m
Altitude 36000
Route NOSUG2A NOSUG UT27 OMVIP UT45 IRDOV L214 LEV
Aircraft B772/H-SDE2E3FGHIJ5LORVWXY/LB1D1

Departure

Time 2026-04-30 21:00
Airport Cancún International Airport (MMUN)

Arrival

Time 2026-04-30 22:33
Airport Louis Armstrong New Orleans International Airport (KMSY)
Time Latitude Longitude Altitude Speed Heading
2026-04-30 19:45 21.04084 -86.87649 35 ft 0 kts 169°
2026-04-30 20:31 21.04093 -86.87650 35 ft 0 kts 169°
2026-04-30 20:32 21.04092 -86.87650 35 ft 0 kts 169°
2026-04-30 20:32 21.04116 -86.87660 35 ft 2 kts 154°
2026-04-30 20:33 21.04129 -86.87667 35 ft 2 kts 147°
2026-04-30 20:33 21.04153 -86.87688 35 ft 2 kts 134°
2026-04-30 20:33 21.04163 -86.87700 35 ft 2 kts 127°
2026-04-30 20:34 21.04181 -86.87726 35 ft 2 kts 126°
2026-04-30 20:34 21.04184 -86.87732 36 ft 0 kts 126°
2026-04-30 20:48 21.04160 -86.87720 35 ft 5 kts 178°
2026-04-30 20:48 21.04102 -86.87741 35 ft 12 kts 207°
2026-04-30 20:48 21.04028 -86.87791 34 ft 6 kts 213°
2026-04-30 20:48 21.03980 -86.87830 33 ft 10 kts 238°
2026-04-30 20:49 21.03991 -86.87922 34 ft 15 kts 299°
2026-04-30 20:49 21.04056 -86.88028 35 ft 18 kts 303°
2026-04-30 20:49 21.04136 -86.88155 37 ft 21 kts 304°
2026-04-30 20:50 21.04329 -86.88462 42 ft 28 kts 303°
2026-04-30 20:50 21.04438 -86.88638 44 ft 28 kts 303°
2026-04-30 20:50 21.04521 -86.88771 45 ft 20 kts 303°
2026-04-30 20:50 21.04574 -86.88855 46 ft 12 kts 304°
2026-04-30 20:51 21.04595 -86.88888 46 ft 0 kts 304°
2026-04-30 20:52 21.04619 -86.88927 47 ft 9 kts 304°
2026-04-30 20:53 21.04631 -86.88995 47 ft 9 kts 244°
2026-04-30 20:53 21.04622 -86.89009 47 ft 0 kts 232°
2026-04-30 20:54 21.04620 -86.89012 47 ft 2 kts 231°
2026-04-30 20:54 21.04581 -86.89048 46 ft 11 kts 217°
2026-04-30 20:55 21.04476 -86.89008 45 ft 0 kts 125°
2026-04-30 20:59 21.03984 -86.88227 37 ft 150 kts 124°
2026-04-30 20:59 21.03311 -86.87156 484 ft 184 kts 124°
2026-04-30 21:00 21.02182 -86.84880 2003 ft 185 kts 103°
2026-04-30 21:00 21.03025 -86.81990 2658 ft 240 kts 45°
2026-04-30 21:01 21.06202 -86.80067 3625 ft 275 kts 32°
2026-04-30 21:01 21.07851 -86.79060 4448 ft 275 kts 32°
2026-04-30 21:01 21.11595 -86.78414 5985 ft 286 kts 353°
2026-04-30 21:02 21.13572 -86.78772 6731 ft 289 kts 351°
2026-04-30 21:02 21.15549 -86.79185 7502 ft 291 kts 351°
2026-04-30 21:02 21.17548 -86.79603 8281 ft 291 kts 351°
2026-04-30 21:02 21.19548 -86.80018 9039 ft 292 kts 352°
2026-04-30 21:03 21.21529 -86.80405 9799 ft 293 kts 353°
2026-04-30 21:03 21.23573 -86.80796 10423 ft 300 kts 353°
2026-04-30 21:03 21.25690 -86.81202 10774 ft 318 kts 352°
2026-04-30 21:03 21.27925 -86.81634 11179 ft 332 kts 352°
2026-04-30 21:04 21.30177 -86.82076 12315 ft 321 kts 352°
2026-04-30 21:04 21.32294 -86.82490 13487 ft 306 kts 352°
2026-04-30 21:04 21.36433 -86.83292 15060 ft 305 kts 352°
2026-04-30 21:05 21.38539 -86.83701 15655 ft 309 kts 351°
2026-04-30 21:05 21.40698 -86.84120 16273 ft 313 kts 351°
2026-04-30 21:05 21.42842 -86.84538 16923 ft 315 kts 351°
2026-04-30 21:05 21.45004 -86.84959 17495 ft 319 kts 351°
2026-04-30 21:06 21.47218 -86.85390 18090 ft 322 kts 351°
2026-04-30 21:06 21.49411 -86.85817 18696 ft 324 kts 351°
2026-04-30 21:06 21.51651 -86.86253 19331 ft 326 kts 350°
2026-04-30 21:06 21.53889 -86.86689 19799 ft 330 kts 350°
2026-04-30 21:07 21.56171 -86.87135 19889 ft 333 kts 350°
2026-04-30 21:07 21.58452 -86.87579 19892 ft 331 kts 350°
2026-04-30 21:07 21.60760 -86.88030 19929 ft 345 kts 350°
2026-04-30 21:07 21.63210 -86.88507 20187 ft 363 kts 350°
2026-04-30 21:08 21.65736 -86.89000 20483 ft 378 kts 350°
2026-04-30 21:08 21.68395 -86.89519 20781 ft 393 kts 349°
2026-04-30 21:08 21.71172 -86.90062 21041 ft 409 kts 349°
2026-04-30 21:08 21.74010 -86.90617 21328 ft 422 kts 349°
2026-04-30 21:09 21.76847 -86.91171 21819 ft 429 kts 349°
2026-04-30 21:09 21.79777 -86.91744 22520 ft 431 kts 349°
2026-04-30 21:09 21.82740 -86.92324 23226 ft 432 kts 349°
2026-04-30 21:09 21.85734 -86.92887 23818 ft 437 kts 352°
2026-04-30 21:10 21.88744 -86.93200 24378 ft 441 kts 354°
2026-04-30 21:10 21.91864 -86.93465 24958 ft 445 kts 355°
2026-04-30 21:10 21.94955 -86.93724 25561 ft 448 kts 355°
2026-04-30 21:10 21.98083 -86.93988 26207 ft 450 kts 355°
2026-04-30 21:11 22.01225 -86.94254 26818 ft 452 kts 355°
2026-04-30 21:11 22.04361 -86.94521 27313 ft 456 kts 355°
2026-04-30 21:11 22.07544 -86.94792 27793 ft 461 kts 355°
2026-04-30 21:11 22.10782 -86.95068 28361 ft 463 kts 355°
2026-04-30 21:12 22.13981 -86.95342 28931 ft 465 kts 354°
2026-04-30 21:12 22.17223 -86.95619 29519 ft 466 kts 354°
2026-04-30 21:12 22.20466 -86.95896 30299 ft 463 kts 355°
2026-04-30 21:12 22.23646 -86.96169 31230 ft 456 kts 354°
2026-04-30 21:13 22.26785 -86.96437 32174 ft 448 kts 354°
2026-04-30 21:13 22.29861 -86.96700 33006 ft 442 kts 354°
2026-04-30 21:13 22.32907 -86.96962 33779 ft 438 kts 354°
2026-04-30 21:13 22.35967 -86.97224 34485 ft 436 kts 354°
2026-04-30 21:14 22.38984 -86.97484 35241 ft 433 kts 354°
2026-04-30 21:14 22.41950 -86.97739 35845 ft 431 kts 354°
2026-04-30 21:14 22.48009 -86.98260 35902 ft 430 kts 354°
2026-04-30 21:15 22.53982 -86.98774 35907 ft 430 kts 353°
2026-04-30 21:15 22.59952 -86.99289 35904 ft 430 kts 354°
2026-04-30 21:16 22.65931 -86.99804 35908 ft 429 kts 353°
2026-04-30 21:16 22.71954 -87.00324 35901 ft 433 kts 354°
2026-04-30 21:17 22.77927 -87.00840 35901 ft 429 kts 353°
2026-04-30 21:17 22.83918 -87.01358 35902 ft 431 kts 353°
2026-04-30 21:18 22.89884 -87.01874 35903 ft 430 kts 354°
2026-04-30 21:18 22.95882 -87.02393 35897 ft 431 kts 354°
2026-04-30 21:19 23.01875 -87.02997 35898 ft 428 kts 348°
2026-04-30 21:19 23.07533 -87.04948 35897 ft 429 kts 334°
2026-04-30 21:20 23.12514 -87.08442 35916 ft 427 kts 324°
2026-04-30 21:20 23.17303 -87.12299 35911 ft 428 kts 324°
2026-04-30 21:21 23.22089 -87.16158 35912 ft 429 kts 324°
2026-04-30 21:22 23.29285 -87.21965 35912 ft 428 kts 324°
2026-04-30 21:23 23.38837 -87.29683 35911 ft 428 kts 324°
2026-04-30 21:23 23.46041 -87.35513 35911 ft 429 kts 324°
2026-04-30 21:24 23.50814 -87.39381 35912 ft 428 kts 323°
2026-04-30 21:24 23.55611 -87.43271 35912 ft 429 kts 323°
2026-04-30 21:25 23.62769 -87.49082 35911 ft 428 kts 323°
2026-04-30 21:26 23.69832 -87.54826 35912 ft 428 kts 323°
2026-04-30 21:27 23.77008 -87.60668 35913 ft 430 kts 323°
2026-04-30 21:27 23.81810 -87.64584 35916 ft 429 kts 323°
2026-04-30 21:28 23.88976 -87.70432 35920 ft 428 kts 323°
2026-04-30 21:29 23.96117 -87.76269 35920 ft 430 kts 323°
2026-04-30 21:30 24.08040 -87.86034 35922 ft 429 kts 322°
2026-04-30 21:31 24.19990 -87.95843 35926 ft 428 kts 322°
2026-04-30 21:32 24.27073 -88.01668 35723 ft 408 kts 322°
2026-04-30 21:32 24.29339 -88.03535 34963 ft 408 kts 322°
2026-04-30 21:32 24.31618 -88.05412 34089 ft 411 kts 322°
2026-04-30 21:33 24.33928 -88.07316 33927 ft 418 kts 322°
2026-04-30 21:33 24.38673 -88.11228 33922 ft 427 kts 322°
2026-04-30 21:34 24.43415 -88.15143 33920 ft 426 kts 322°
2026-04-30 21:34 24.50826 -88.20764 33922 ft 443 kts 333°
2026-04-30 21:35 24.53739 -88.22065 33922 ft 454 kts 338°
2026-04-30 21:35 24.56761 -88.23234 33922 ft 462 kts 339°
2026-04-30 21:35 24.62890 -88.25589 33916 ft 463 kts 339°
2026-04-30 21:36 24.68990 -88.27943 33916 ft 463 kts 339°
2026-04-30 21:37 24.81203 -88.32674 33914 ft 462 kts 339°
2026-04-30 21:37 24.87294 -88.35040 33914 ft 463 kts 338°
2026-04-30 21:38 24.93446 -88.37434 33914 ft 463 kts 338°
2026-04-30 21:38 24.99573 -88.39819 33912 ft 465 kts 339°
2026-04-30 21:39 25.05674 -88.42197 33911 ft 462 kts 338°
2026-04-30 21:39 25.11768 -88.44576 33917 ft 464 kts 338°
2026-04-30 21:40 25.17854 -88.46954 33916 ft 464 kts 338°
2026-04-30 21:40 25.23943 -88.49335 33912 ft 464 kts 338°
2026-04-30 21:41 25.30072 -88.51735 33915 ft 463 kts 338°
2026-04-30 21:41 25.36206 -88.54139 33916 ft 463 kts 338°
2026-04-30 21:42 25.42343 -88.56548 33912 ft 465 kts 338°
2026-04-30 21:42 25.48455 -88.58948 33915 ft 463 kts 338°
2026-04-30 21:43 25.53552 -88.60952 33916 ft 463 kts 338°
2026-04-30 21:43 25.60685 -88.63760 33914 ft 464 kts 338°
2026-04-30 21:44 25.66771 -88.66158 33919 ft 462 kts 337°
2026-04-30 21:44 25.72839 -88.68552 33924 ft 463 kts 337°
2026-04-30 21:45 25.78950 -88.70966 33923 ft 462 kts 337°
2026-04-30 21:45 25.85016 -88.73364 33921 ft 462 kts 337°
2026-04-30 21:46 25.91109 -88.75776 33924 ft 464 kts 337°
2026-04-30 21:46 25.97195 -88.78188 33924 ft 464 kts 337°
2026-04-30 21:47 26.03291 -88.80605 33922 ft 462 kts 336°
2026-04-30 21:47 26.09346 -88.83010 33920 ft 461 kts 337°
2026-04-30 21:48 26.15398 -88.85416 33928 ft 461 kts 336°
2026-04-30 21:48 26.21482 -88.87837 33928 ft 464 kts 336°
2026-04-30 21:49 26.27538 -88.90250 33926 ft 461 kts 336°
2026-04-30 21:49 26.33622 -88.92677 33925 ft 461 kts 336°
2026-04-30 21:50 26.39647 -88.95084 33926 ft 464 kts 336°
2026-04-30 21:50 26.45701 -88.97503 33926 ft 460 kts 336°
2026-04-30 21:51 26.51781 -88.99937 33923 ft 461 kts 336°
2026-04-30 21:51 26.57856 -89.02371 33925 ft 461 kts 336°
2026-04-30 21:52 26.63879 -89.04787 33922 ft 461 kts 336°
2026-04-30 21:52 26.69913 -89.07209 33918 ft 460 kts 336°
2026-04-30 21:53 26.75965 -89.09643 33922 ft 459 kts 336°
2026-04-30 21:53 26.81987 -89.12067 33919 ft 461 kts 336°
2026-04-30 21:54 26.88012 -89.14494 33918 ft 460 kts 336°
2026-04-30 21:54 26.94087 -89.16944 33916 ft 458 kts 336°
2026-04-30 21:55 27.00065 -89.19359 33916 ft 461 kts 335°
2026-04-30 21:55 27.06093 -89.21796 33912 ft 457 kts 336°
2026-04-30 21:56 27.12103 -89.24231 33919 ft 459 kts 335°
2026-04-30 21:56 27.18111 -89.26703 33919 ft 458 kts 335°
2026-04-30 21:57 27.24100 -89.29172 33917 ft 459 kts 335°
2026-04-30 21:57 27.30088 -89.31642 33918 ft 459 kts 335°
2026-04-30 21:58 27.36112 -89.34128 33917 ft 457 kts 335°
2026-04-30 21:58 27.42113 -89.36610 33913 ft 459 kts 335°
2026-04-30 21:59 27.48084 -89.39079 33912 ft 459 kts 335°
2026-04-30 22:00 27.57155 -89.42841 33912 ft 471 kts 335°
2026-04-30 22:00 27.66395 -89.46674 33911 ft 470 kts 335°
2026-04-30 22:01 27.72531 -89.49224 33907 ft 469 kts 335°
2026-04-30 22:01 27.78667 -89.51778 33907 ft 469 kts 335°
2026-04-30 22:02 27.84801 -89.54333 33902 ft 470 kts 335°
2026-04-30 22:02 27.90970 -89.56908 33902 ft 471 kts 335°
2026-04-30 22:03 27.97107 -89.59470 33904 ft 468 kts 334°
2026-04-30 22:03 28.03243 -89.62036 33899 ft 468 kts 334°
2026-04-30 22:04 28.09403 -89.64616 33900 ft 470 kts 334°
2026-04-30 22:05 28.18612 -89.68477 33918 ft 468 kts 334°
2026-04-30 22:05 28.24734 -89.71049 33913 ft 468 kts 334°
2026-04-30 22:06 28.30907 -89.73644 33912 ft 468 kts 334°
2026-04-30 22:06 28.40055 -89.77496 33913 ft 468 kts 334°
2026-04-30 22:07 28.46206 -89.80090 33912 ft 470 kts 334°
2026-04-30 22:07 28.52357 -89.82687 33908 ft 468 kts 334°
2026-04-30 22:08 28.58449 -89.85262 33909 ft 467 kts 334°
2026-04-30 22:08 28.64522 -89.87829 33915 ft 454 kts 333°
2026-04-30 22:09 28.67428 -89.89055 33899 ft 435 kts 333°
2026-04-30 22:09 28.70243 -89.90244 33733 ft 421 kts 333°
2026-04-30 22:09 28.73012 -89.91421 32870 ft 422 kts 333°
2026-04-30 22:09 28.75751 -89.92587 32059 ft 424 kts 333°
2026-04-30 22:10 28.78517 -89.93764 31298 ft 424 kts 333°
2026-04-30 22:10 28.81311 -89.94952 30583 ft 422 kts 333°
2026-04-30 22:10 28.84057 -89.96118 30153 ft 415 kts 333°
2026-04-30 22:10 28.86767 -89.97269 29713 ft 414 kts 332°
2026-04-30 22:11 28.92354 -89.99657 28726 ft 431 kts 332°
2026-04-30 22:11 28.95157 -90.00850 28227 ft 427 kts 332°
2026-04-30 22:11 28.97924 -90.02027 27722 ft 423 kts 333°
2026-04-30 22:12 29.00669 -90.03197 27216 ft 419 kts 333°
2026-04-30 22:12 29.03343 -90.04433 26732 ft 409 kts 327°
2026-04-30 22:12 29.05785 -90.06057 26244 ft 398 kts 319°
2026-04-30 22:12 29.07905 -90.08012 25749 ft 389 kts 311°
2026-04-30 22:13 29.09757 -90.10236 25222 ft 383 kts 308°
2026-04-30 22:13 29.11540 -90.12499 24707 ft 380 kts 308°
2026-04-30 22:13 29.13289 -90.14722 24183 ft 377 kts 308°
2026-04-30 22:13 29.15041 -90.16952 23649 ft 374 kts 308°
2026-04-30 22:14 29.16781 -90.19167 23124 ft 371 kts 308°
2026-04-30 22:14 29.18477 -90.21326 22636 ft 368 kts 308°
2026-04-30 22:14 29.20192 -90.23512 22150 ft 364 kts 308°
2026-04-30 22:14 29.21887 -90.25674 21608 ft 362 kts 308°
2026-04-30 22:15 29.23562 -90.27811 20987 ft 363 kts 309°
2026-04-30 22:15 29.25248 -90.29964 20422 ft 361 kts 308°
2026-04-30 22:15 29.26911 -90.32089 19923 ft 358 kts 308°
2026-04-30 22:15 29.28582 -90.34223 19433 ft 354 kts 308°
2026-04-30 22:16 29.30199 -90.36289 19039 ft 348 kts 309°
2026-04-30 22:16 29.31815 -90.38356 18655 ft 342 kts 308°
2026-04-30 22:17 29.36484 -90.44333 17424 ft 328 kts 308°
2026-04-30 22:17 29.38007 -90.46284 17017 ft 324 kts 308°
2026-04-30 22:17 29.41092 -90.50248 16130 ft 339 kts 308°
2026-04-30 22:18 29.42667 -90.52271 15630 ft 338 kts 308°
2026-04-30 22:18 29.45781 -90.56271 14691 ft 335 kts 308°
2026-04-30 22:19 29.48907 -90.60293 13747 ft 335 kts 308°
2026-04-30 22:19 29.50457 -90.62289 13295 ft 335 kts 308°
2026-04-30 22:19 29.53535 -90.66252 12385 ft 331 kts 308°
2026-04-30 22:20 29.55065 -90.68224 11936 ft 329 kts 308°
2026-04-30 22:20 29.58097 -90.72136 11016 ft 325 kts 308°
2026-04-30 22:20 29.59596 -90.74071 10592 ft 321 kts 308°
2026-04-30 22:21 29.61035 -90.75927 10504 ft 302 kts 309°
2026-04-30 22:21 29.62398 -90.77684 10442 ft 285 kts 308°
2026-04-30 22:21 29.63683 -90.79344 10370 ft 271 kts 309°
2026-04-30 22:21 29.65145 -90.80698 10261 ft 267 kts 330°
2026-04-30 22:22 29.66942 -90.81214 10129 ft 268 kts 354°
2026-04-30 22:22 29.68803 -90.80805 9900 ft 284 kts 18°
2026-04-30 22:22 29.70589 -90.79694 9528 ft 292 kts 28°
2026-04-30 22:22 29.72293 -90.78406 9170 ft 294 kts 30°
2026-04-30 22:23 29.74012 -90.77071 8831 ft 294 kts 30°
2026-04-30 22:23 29.75698 -90.75764 8494 ft 294 kts 30°
2026-04-30 22:23 29.77402 -90.74445 8154 ft 294 kts 31°
2026-04-30 22:23 29.79111 -90.73123 7836 ft 294 kts 31°
2026-04-30 22:24 29.80823 -90.71799 7503 ft 294 kts 31°
2026-04-30 22:24 29.82523 -90.70484 7151 ft 291 kts 32°
2026-04-30 22:24 29.84190 -90.69193 6855 ft 286 kts 32°
2026-04-30 22:24 29.85821 -90.67930 6533 ft 281 kts 32°
2026-04-30 22:25 29.87444 -90.66673 6225 ft 277 kts 32°
2026-04-30 22:25 29.89071 -90.65413 5921 ft 278 kts 33°
2026-04-30 22:25 29.90684 -90.64163 5611 ft 279 kts 33°
2026-04-30 22:25 29.92297 -90.62912 5304 ft 279 kts 33°
2026-04-30 22:26 29.95521 -90.60410 4697 ft 279 kts 33°
2026-04-30 22:26 29.97141 -90.59152 4410 ft 278 kts 33°
2026-04-30 22:26 29.98729 -90.57919 4330 ft 268 kts 33°
2026-04-30 22:27 30.00256 -90.56732 4256 ft 257 kts 33°
2026-04-30 22:27 30.01708 -90.55604 4190 ft 244 kts 33°
2026-04-30 22:27 30.04283 -90.53364 4051 ft 219 kts 54°
2026-04-30 22:28 30.04980 -90.50188 3674 ft 206 kts 102°
2026-04-30 22:28 30.04635 -90.48637 3421 ft 189 kts 107°
2026-04-30 22:29 30.03661 -90.44758 2809 ft 152 kts 107°
2026-04-30 22:29 30.03380 -90.43593 2621 ft 152 kts 107°
2026-04-30 22:30 30.02268 -90.38964 1842 ft 144 kts 103°
2026-04-30 22:31 30.01473 -90.35659 1286 ft 143 kts 103°
2026-04-30 22:32 30.00685 -90.32382 742 ft 138 kts 104°
2026-04-30 22:32 30.00182 -90.30267 396 ft 137 kts 104°
2026-04-30 22:33 29.99401 -90.27070 18 ft 119 kts 108°
2026-04-30 22:33 29.99117 -90.25909 18 ft 32 kts 105°
2026-04-30 22:34 29.99121 -90.25643 18 ft 7 kts 22°
2026-04-30 22:35 29.99215 -90.25707 18 ft 14 kts 279°
2026-04-30 22:36 29.99411 -90.25842 18 ft 8 kts 22°
2026-04-30 22:36 29.99443 -90.25810 18 ft 5 kts 62°
2026-04-30 22:37 29.99440 -90.25755 18 ft 0 kts 108°